This demonstration page uses our WeatherBlox Daily Observations layout. Learn more.

Left ArrowRight Arrow

Hourly Observations for March 27, 2020

Temp ( °F °C ) Dew Point ( °F °C ) Humidity (%) Winds ( mph kmh ) Pressure ( in mb ) Visibility ( mi km ) Precip ( " mm )
12:12 am 00:12 Cloudy with Mist and Fog 43 6 43 6 100 100 NE 13 20 29.81 1009 3 5 0.00 0.00
12:56 am 00:56 Cloudy with Mist and Fog 43 6.1 42 5.6 97 97 NE 13 20 29.78 1008 5 8 0.00 0.00
1:09 am 01:09 Cloudy with Mist and Fog 43 6 43 6 100 100 NE 13 20 29.80 1009 5 8 0.00 0.00
1:40 am 01:40 Cloudy 43 6 41 5 93 93 NE 10 17 29.80 1009 7 11 0.00 0.00
1:56 am 01:56 Cloudy 43 6.1 41 5 93 93 NE 14 22 29.78 1008 7 11 0.00 0.00
2:56 am 02:56 Cloudy 42 5.6 41 5 96 96 NNE 7 11 29.78 1009 8 13 0.00 0.00
3:56 am 03:56 Cloudy 42 5.6 41 5 96 96 NE 10 17 29.75 1008 7 11 0.00 0.00
4:11 am 04:11 Cloudy with Mist and Fog 43 6 41 5 93 93 NE 13 20 29.77 1008 6 10 0.00 0.00
4:56 am 04:56 Cloudy with Mist and Fog 42 5.6 41 5 96 96 NNE 8 13 29.75 1008 5 8 0.00 0.00
5:56 am 05:56 Cloudy with Mist and Fog 42 5.6 41 5 96 96 NNE 9 15 29.75 1008 5 8 0.00 0.00
6:56 am 06:56 Cloudy with Mist and Fog 41 5 41 5 100 100 N 9 15 29.75 1008 5 8 0.00 0.00
7:32 am 07:32 Cloudy with Mist and Fog 41 5 41 5 100 100 NNE 10 17 29.79 1009 4 6 0.00 0.00
7:45 am 07:45 Cloudy with Mist and Fog 41 5 41 5 100 100 NNE 9 15 29.79 1009 3 4 0.00 0.00
7:56 am 07:56 Cloudy with Mist and Fog 41 5 41 5 100 100 NNE 10 17 29.75 1008 2 2 0.00 0.00
8:04 am 08:04 Cloudy with Mist and Fog 41 5 41 5 100 100 NNE 9 15 29.80 1009 1 1 0.00 0.00
8:14 am 08:14 Cloudy with Fog 41 5 41 5 100 100 N 10 17 29.80 1009 1 1 0.00 0.00
8:28 am 08:28 Cloudy with Fog 41 5 41 5 100 100 NNE 12 19 29.79 1009 0 0 0.00 0.00
8:56 am 08:56 Cloudy with Fog 42 5.6 41 5 96 96 NNE 13 20 29.75 1008 0 0 0.00 0.00
9:56 am 09:56 Cloudy with Fog 42 5.6 42 5.6 100 100 N 7 11 29.79 1009 0 0 0.00 0.00
10:56 am 10:56 Cloudy with Fog 42 5.6 42 5.6 100 100 N 13 20 29.79 1009 0 0 0.00 0.00
11:17 am 11:17 Cloudy with Fog 43 6 43 6 100 100 NNE 10 17 29.80 1009 1 1 0.00 0.00
11:56 am 11:56 Cloudy with Fog 43 6.1 42 5.6 97 97 NNE 9 15 29.79 1009 1 1 0.00 0.00
12:56 pm 12:56 Cloudy with Fog 43 6.1 42 5.6 97 97 NNE 9 15 29.76 1008 1 1 0.00 0.00
1:53 pm 13:53 Cloudy with Mist and Fog 43 6 43 6 100 100 N 6 9 29.78 1008 1 1 0.00 0.00
1:56 pm 13:56 Cloudy with Mist and Fog 43 6.1 43 6.1 100 100 NNW 5 7 29.76 1008 1 2 0.00 0.00
2:04 pm 14:04 Cloudy with Mist and Fog 43 6 43 6 100 100 NNW 7 11 29.78 1008 1 1 0.00 0.00
2:11 pm 14:11 Cloudy with Mist and Fog 43 6 43 6 100 100 NNW 8 13 29.77 1008 1 2 0.00 0.00
2:37 pm 14:37 Cloudy with Mist and Fog 45 7 45 7 100 100 N 8 13 29.73 1007 1 1 0.00 0.00
2:40 pm 14:40 Cloudy with Mist and Fog 45 7 45 7 100 100 NNE 8 13 29.73 1007 1 2 0.00 0.00
2:49 pm 14:49 Cloudy with Mist and Fog 45 7 45 7 100 100 undefined N/A 29.74 1007 2 3 0.00 0.00
2:56 pm 14:56 Cloudy with Mist and Fog 44 6.7 44 6.7 100 100 NNE 8 13 29.71 1006 2 2 0.00 0.00
3:09 pm 15:09 Cloudy with Mist and Fog 45 7 45 7 100 100 N 9 15 29.72 1006 3 4 0.00 0.00
3:28 pm 15:28 Cloudy with Mist and Fog 45 7 45 7 100 100 N 9 15 29.71 1006 3 5 0.00 0.00
3:56 pm 15:56 Cloudy with Mist and Fog 45 7.2 44 6.7 97 97 NNE 10 17 29.70 1006 4 6 0.00 0.00
4:05 pm 16:05 Cloudy with Mist and Fog 45 7 43 6 93 93 NE 9 15 29.70 1006 6 10 0.00 0.00
4:56 pm 16:56 Cloudy 45 7.2 43 6.1 93 93 NE 10 17 29.68 1005 9 14 0.00 0.00
5:12 pm 17:12 Cloudy 45 7 43 6 93 93 NE 9 15 29.69 1005 10 16 0.00 0.00
5:56 pm 17:56 Cloudy 45 7.2 43 6.1 93 93 ENE 12 19 29.68 1005 10 16 0.00 0.00
6:11 pm 18:11 Cloudy 45 7 43 6 93 93 ENE 10 17 29.71 1006 10 16 0.00 0.00
6:56 pm 18:56 Cloudy 44 6.7 43 6.1 96 96 ENE 9 15 29.69 1005 9 14 0.00 0.00
7:56 pm 19:56 Cloudy with Mist and Fog 44 6.7 43 6.1 96 96 NE 8 13 29.70 1006 6 10 0.00 0.00
8:56 pm 20:56 Cloudy with Mist and Fog 43 6.1 43 6.1 100 100 NE 9 15 29.71 1006 4 6 0.00 0.00
9:09 pm 21:09 Cloudy with Mist and Fog 43 6 43 6 100 100 NE 12 19 29.74 1007 2 3 0.00 0.00
9:22 pm 21:22 Cloudy with Mist and Fog 43 6 43 6 100 100 NNE 9 15 29.74 1007 3 4 0.00 0.00
9:35 pm 21:35 Cloudy with Mist and Fog 43 6 43 6 100 100 NE 10 17 29.74 1007 3 5 0.00 0.00
9:56 pm 21:56 Cloudy with Mist and Fog 43 6.1 42 5.6 97 97 NNE 7 11 29.72 1006 6 10 0.00 0.00
10:56 pm 22:56 Cloudy 43 6.1 42 5.6 97 97 NNW 6 9 29.74 1007 10 16 0.00 0.00
11:25 pm 23:25 Cloudy with Light Rain 43 6 43 6 100 100 NE 6 9 29.76 1008 9 14 0.01 0.25
11:37 pm 23:37 Cloudy with Light Rain 43 6 41 5 93 93 NNE 15 24 29.71 1006 4 6 0.06 1.52
11:56 pm 23:56 Cloudy with Light Rain 42 5.6 41 5 96 96 NNE 17 28 29.66 1005 9 14 0.06 1.52

Powered by AerisWeather